TimeEDT,TemperatureF,Dew PointF,Humidity,Sea Level PressureIn,VisibilityMPH,Wind Direction,Wind SpeedMPH,Gust SpeedMPH,PrecipitationIn,Events,Conditions,WindDirDegrees,DateUTC
12:15 AM,49.5,49.5,100,30.16,5.0,Calm,Calm,-,N/A,,Clear,0,2013-09-15 04:15:00
12:35 AM,49.1,49.1,100,30.16,4.0,Calm,Calm,-,N/A,,Clear,0,2013-09-15 04:35:00
12:55 AM,49.3,49.3,100,30.17,5.0,Calm,Calm,-,N/A,,Clear,0,2013-09-15 04:55:00
1:15 AM,49.3,49.3,100,30.17,10.0,Calm,Calm,-,N/A,,Clear,0,2013-09-15 05:15:00
1:35 AM,48.7,48.7,100,30.18,5.0,Calm,Calm,-,N/A,,Clear,0,2013-09-15 05:35:00
1:55 AM,48.9,48.7,99,30.18,5.0,Calm,Calm,-,N/A,,Clear,0,2013-09-15 05:55:00
2:15 AM,49.3,49.3,100,30.19,5.0,Calm,Calm,-,N/A,,Clear,0,2013-09-15 06:15:00
2:35 AM,48.7,48.7,100,30.19,5.0,Calm,Calm,-,N/A,,Clear,0,2013-09-15 06:35:00
2:55 AM,49.5,49.5,100,30.19,10.0,Calm,Calm,-,N/A,,Clear,0,2013-09-15 06:55:00
3:15 AM,48.7,48.6,99,30.20,10.0,Calm,Calm,-,N/A,,Clear,0,2013-09-15 07:15:00
3:35 AM,47.7,47.5,99,30.20,7.0,Calm,Calm,-,N/A,,Clear,0,2013-09-15 07:35:00
3:55 AM,46.9,46.9,100,30.20,7.0,Calm,Calm,-,N/A,,Clear,0,2013-09-15 07:55:00
4:15 AM,46.8,46.8,100,30.20,7.0,Calm,Calm,-,N/A,,Clear,0,2013-09-15 08:15:00
4:35 AM,46.8,46.8,100,30.20,7.0,Calm,Calm,-,N/A,,Clear,0,2013-09-15 08:35:00
4:55 AM,46.4,46.4,100,30.21,4.0,Calm,Calm,-,N/A,,Clear,0,2013-09-15 08:55:00
5:15 AM,45.9,45.9,100,30.21,5.0,Calm,Calm,-,N/A,,Clear,0,2013-09-15 09:15:00
5:35 AM,45.5,45.5,100,30.21,4.0,Calm,Calm,-,N/A,,Clear,0,2013-09-15 09:35:00
6:15 AM,45.5,45.5,100,30.23,5.0,Calm,Calm,-,N/A,,Clear,0,2013-09-15 10:15:00
6:35 AM,45.5,45.5,100,30.23,5.0,Calm,Calm,-,N/A,,Clear,0,2013-09-15 10:35:00
6:55 AM,45.0,45.0,100,30.23,5.0,Calm,Calm,-,N/A,,Clear,0,2013-09-15 10:55:00
7:15 AM,45.0,45.0,100,30.24,3.0,Calm,Calm,-,N/A,,Clear,0,2013-09-15 11:15:00
7:35 AM,47.1,47.1,100,30.24,3.0,Calm,Calm,-,N/A,,Mostly Cloudy,0,2013-09-15 11:35:00
7:55 AM,49.1,49.1,100,30.25,5.0,Calm,Calm,-,N/A,,Overcast,0,2013-09-15 11:55:00
8:15 AM,51.8,51.8,100,30.25,7.0,Calm,Calm,-,N/A,,Overcast,0,2013-09-15 12:15:00
8:35 AM,52.5,52.5,100,30.25,10.0,Calm,Calm,-,N/A,,Overcast,0,2013-09-15 12:35:00
8:55 AM,54.3,53.6,97,30.25,7.0,Calm,Calm,-,N/A,,Overcast,0,2013-09-15 12:55:00
9:15 AM,55.9,54.5,95,30.26,7.0,Calm,Calm,-,N/A,,Overcast,0,2013-09-15 13:15:00
9:35 AM,57.6,54.5,90,30.26,7.0,Calm,Calm,-,N/A,,Overcast,0,2013-09-15 13:35:00
9:55 AM,58.8,53.8,83,30.27,10.0,Calm,Calm,-,N/A,,Overcast,0,2013-09-15 13:55:00
10:15 AM,60.3,54.1,80,30.27,5.0,Calm,Calm,-,N/A,,Haze,0,2013-09-15 14:15:00
10:35 AM,61.9,57.0,84,30.26,7.0,Calm,Calm,-,N/A,,Overcast,0,2013-09-15 14:35:00
10:55 AM,63.1,57.7,83,30.27,7.0,Calm,Calm,-,N/A,,Overcast,0,2013-09-15 14:55:00
11:15 AM,64.8,58.3,79,30.26,7.0,Calm,Calm,-,N/A,,Mostly Cloudy,0,2013-09-15 15:15:00
11:35 AM,66.4,57.9,74,30.26,10.0,Calm,Calm,-,N/A,,Scattered Clouds,0,2013-09-15 15:35:00
11:55 AM,67.5,57.0,69,30.26,7.0,SSW,3.5,-,N/A,,Clear,210,2013-09-15 15:55:00
12:15 PM,69.1,57.0,65,30.25,7.0,Calm,Calm,-,N/A,,Clear,0,2013-09-15 16:15:00
12:35 PM,71.1,57.9,63,30.24,10.0,SSW,3.5,-,N/A,,Clear,200,2013-09-15 16:35:00
12:55 PM,72.0,57.7,61,30.24,10.0,SW,4.6,-,N/A,,Clear,220,2013-09-15 16:55:00
1:15 PM,73.6,57.2,56,30.23,10.0,Calm,Calm,-,N/A,,Clear,0,2013-09-15 17:15:00
1:35 PM,74.5,57.9,56,30.22,10.0,Calm,Calm,-,N/A,,Clear,0,2013-09-15 17:35:00
1:55 PM,75.0,57.9,55,30.21,10.0,SSW,6.9,-,N/A,,Clear,200,2013-09-15 17:55:00
2:15 PM,75.0,57.6,54,30.21,10.0,Calm,Calm,-,N/A,,Clear,0,2013-09-15 18:15:00
2:35 PM,76.5,57.6,52,30.20,10.0,South,4.6,-,N/A,,Clear,190,2013-09-15 18:35:00
2:55 PM,76.8,57.0,50,30.19,10.0,SSW,3.5,-,N/A,,Clear,200,2013-09-15 18:55:00
3:15 PM,77.9,57.7,50,30.19,10.0,WSW,4.6,-,N/A,,Clear,250,2013-09-15 19:15:00
3:35 PM,78.3,57.6,49,30.17,10.0,WSW,5.8,-,N/A,,Clear,240,2013-09-15 19:35:00
3:55 PM,78.8,58.5,50,30.17,10.0,WSW,5.8,-,N/A,,Clear,250,2013-09-15 19:55:00
4:15 PM,77.2,58.3,52,30.16,10.0,SW,4.6,-,N/A,,Mostly Cloudy,220,2013-09-15 20:15:00
4:35 PM,76.6,58.5,53,30.15,10.0,South,4.6,-,N/A,,Overcast,190,2013-09-15 20:35:00
4:55 PM,77.0,58.6,53,30.15,10.0,SSW,6.9,-,N/A,,Mostly Cloudy,200,2013-09-15 20:55:00
5:15 PM,76.1,59.5,56,30.15,10.0,Calm,Calm,-,N/A,,Mostly Cloudy,0,2013-09-15 21:15:00
5:35 PM,77.5,58.6,52,30.15,10.0,SW,5.8,-,N/A,,Scattered Clouds,220,2013-09-15 21:35:00
5:55 PM,76.6,59.4,55,30.14,10.0,Calm,Calm,-,N/A,,Scattered Clouds,0,2013-09-15 21:55:00
6:15 PM,76.1,60.3,58,30.14,10.0,SW,3.5,-,N/A,,Scattered Clouds,220,2013-09-15 22:15:00
6:35 PM,74.5,61.0,63,30.14,10.0,Calm,Calm,-,N/A,,Scattered Clouds,0,2013-09-15 22:35:00
6:55 PM,70.9,63.3,77,30.14,10.0,Calm,Calm,-,N/A,,Clear,0,2013-09-15 22:55:00
7:15 PM,66.9,63.5,89,30.14,10.0,Calm,Calm,-,N/A,,Clear,0,2013-09-15 23:15:00
7:35 PM,65.5,63.0,92,30.14,10.0,Calm,Calm,-,N/A,,Mostly Cloudy,0,2013-09-15 23:35:00
7:55 PM,63.9,62.1,94,30.14,10.0,Calm,Calm,-,N/A,,Scattered Clouds,0,2013-09-15 23:55:00
8:15 PM,63.0,61.7,96,30.14,7.0,Calm,Calm,-,N/A,,Clear,0,2013-09-16 00:15:00
8:35 PM,62.1,61.0,96,30.14,7.0,Calm,Calm,-,N/A,,Scattered Clouds,0,2013-09-16 00:35:00
8:55 PM,61.7,60.8,97,30.15,7.0,Calm,Calm,-,N/A,,Mostly Cloudy,0,2013-09-16 00:55:00
9:15 PM,61.3,60.4,97,30.15,7.0,Calm,Calm,-,N/A,,Scattered Clouds,0,2013-09-16 01:15:00
9:35 PM,61.0,60.3,97,30.15,5.0,Calm,Calm,-,N/A,,Clear,0,2013-09-16 01:35:00
9:55 PM,61.2,60.8,99,30.16,5.0,Calm,Calm,-,N/A,,Scattered Clouds,0,2013-09-16 01:55:00
10:15 PM,60.1,59.5,98,30.16,5.0,Calm,Calm,-,N/A,,Scattered Clouds,0,2013-09-16 02:15:00
10:35 PM,60.1,59.5,98,30.15,5.0,Calm,Calm,-,N/A,,Clear,0,2013-09-16 02:35:00
10:55 PM,59.4,59.2,99,30.16,5.0,Calm,Calm,-,N/A,,Clear,0,2013-09-16 02:55:00
11:15 PM,59.4,59.2,99,30.16,5.0,Calm,Calm,-,N/A,,Clear,0,2013-09-16 03:15:00
11:35 PM,58.8,58.5,99,30.16,5.0,Calm,Calm,-,N/A,,Clear,0,2013-09-16 03:35:00
11:55 PM,60.8,60.8,100,30.16,7.0,Calm,Calm,-,N/A,,Clear,0,2013-09-16 03:55:00